Total_Precipitation_Accumulation
0.00 0.00 0.00 0.00 0.00 0.00 0.00 0.00 0.00 0.00 0.01 0.00 0.00 0.01 0.01 0.00 0.00 0.03 0.05 0.07 0.02 0.00 0.03 0.05 0.10 0.15 0.13 0.10 0.21 0.52 0.98 1.41 0.75 0.41 0.31 0.45 0.44 0.47 0.45 0.52 0.84 1.13 1.07 1.07
0.02 0.01 0.00 0.00 0.00 0.00 0.00 0.00 0.00 0.00 0.00 0.00 0.00 0.00 0.00 0.00 0.00 0.01 0.01 0.11 0.03 0.00 0.01 0.02 0.05 0.05 0.05 0.13 0.43 0.53 0.59 0.76 0.68 0.47 0.39 0.34 0.35 0.56 0.46 0.58 0.71 0.88 1.02 1.12
0.02 0.01 0.00 0.01 0.00 0.00 0.00 0.00 0.00 0.00 0.00 0.00 0.00 0.00 0.00 0.01 0.01 0.02 0.00 0.00 0.00 0.00 0.02 0.03 0.03 0.03 0.03 0.04 0.24 0.33 0.46 0.52 0.55 0.55 0.62 0.62 0.74 0.77 0.79 0.58 0.50 0.58 0.90 1.22
0.07 0.00 0.02 0.00 0.00 0.00 0.00 0.00 0.00 0.00 0.00 0.00 0.00 0.00 0.00 0.00 0.01 0.00 0.00 0.00 0.00 0.02 0.01 0.00 0.00 0.00 0.02 0.10 0.43 0.36 0.43 0.45 0.45 0.49 0.53 0.58 0.72 0.55 0.40 0.36 0.32 0.48 0.46 0.83
0.09 0.03 0.04 0.02 0.00 0.00 0.01 0.00 0.00 0.00 0.00 0.05 0.02 0.00 0.03 0.05 0.02 0.00 0.01 0.02 0.02 0.03 0.02 0.02 0.02 0.01 0.03 0.15 0.42 0.38 0.44 0.61 0.54 0.60 0.61 0.57 0.56 0.50 0.46 0.44 0.49 0.52 0.61 0.53
0.01 0.02 0.06 0.03 0.00 0.00 0.00 0.02 0.00 0.00 0.02 0.07 0.01 0.01 0.01 0.01 0.03 0.07 0.14 0.11 0.08 0.07 0.05 0.04 0.04 0.05 0.06 0.19 0.42 0.56 0.57 0.51 0.50 0.71 0.78 0.60 0.54 0.54 0.65 0.65 0.55 0.57 0.62 0.72
0.00 0.01 0.01 0.01 0.01 0.01 0.02 0.12 0.19 0.20 0.10 0.04 0.00 0.02 0.02 0.06 0.16 0.28 0.32 0.14 0.08 0.06 0.11 0.14 0.15 0.13 0.11 0.20 0.32 0.50 0.67 0.80 0.69 0.85 0.87 0.86 0.87 0.91 0.78 0.76 0.77 0.81 0.81 1.02
0.06 0.06 0.00 0.01 0.00 0.02 0.02 0.08 0.27 0.37 0.18 0.08 0.15 0.09 0.18 0.36 0.38 0.44 0.32 0.24 0.20 0.24 0.27 0.28 0.21 0.14 0.16 0.28 0.33 0.47 0.98 1.30 1.32 1.17 0.91 0.76 0.62 0.62 0.73 0.82 0.86 0.93 1.03 1.09
0.11 0.07 0.02 0.01 0.01 0.02 0.08 0.11 0.10 0.54 0.36 0.21 0.12 0.11 0.58 1.05 0.79 1.22 1.33 0.82 0.67 0.55 0.44 0.28 0.16 0.14 0.19 0.30 0.42 0.55 0.77 0.84 1.01 0.83 0.60 0.60 0.61 0.64 0.68 0.74 0.75 0.76 0.81 0.89
0.06 0.19 0.04 0.02 0.04 0.01 0.07 0.12 0.44 0.91 0.87 0.37 0.02 0.06 0.41 0.67 0.73 0.80 0.68 0.52 0.40 0.32 0.24 0.19 0.13 0.18 0.16 0.27 0.54 0.94 1.11 1.05 1.09 1.02 0.92 0.66 0.57 0.56 0.50 0.46 0.47 0.49 0.47 0.47
0.02 0.14 0.14 0.12 0.13 0.07 0.10 0.30 0.38 0.59 0.46 0.53 0.28 0.40 0.77 0.65 0.86 0.64 0.20 0.18 0.20 0.22 0.21 0.17 0.10 0.15 0.16 0.29 0.41 0.55 0.92 1.49 1.81 1.65 1.38 1.05 0.80 1.13 1.15 0.88 0.87 0.82 0.70 0.64
0.12 0.15 0.08 0.07 0.06 0.06 0.16 0.24 0.48 1.06 0.72 0.47 0.53 0.64 0.93 0.76 0.40 0.69 0.32 0.24 0.11 0.13 0.19 0.14 0.11 0.10 0.11 0.13 0.20 0.37 0.50 0.75 1.09 1.28 1.65 2.06 1.75 1.48 1.58 1.49 1.39 1.34 0.95 0.81
0.24 0.35 0.27 0.20 0.21 0.18 0.25 0.34 0.46 0.66 0.97 0.74 0.97 0.79 0.96 0.72 0.71 0.93 0.49 0.10 0.07 0.16 0.23 0.19 0.16 0.18 0.18 0.17 0.23 0.36 0.46 0.70 0.94 1.12 1.22 1.73 1.81 2.12 1.65 1.58 1.66 1.41 1.13 0.93
0.41 0.20 0.24 0.28 0.44 0.46 0.44 0.27 0.36 1.05 1.69 0.98 0.53 0.45 1.17 1.32 1.22 0.62 0.21 0.15 0.15 0.23 0.28 0.23 0.31 0.43 0.47 0.50 0.57 0.57 0.65 0.73 1.03 1.06 1.25 1.12 1.33 1.66 1.90 1.41 1.31 1.29 1.28 1.13
0.69 0.49 0.17 0.13 0.13 0.22 0.29 0.31 0.33 0.63 0.70 1.25 0.60 0.71 0.76 0.85 1.06 0.83 0.37 0.23 0.25 0.32 0.29 0.29 0.33 0.49 0.60 0.77 0.71 0.65 0.70 0.70 0.76 0.88 1.00 1.18 1.37 1.47 1.87 1.57 1.51 1.43 1.44 1.76
0.81 1.11 0.58 0.31 0.11 0.28 0.49 0.24 0.21 0.31 0.42 0.46 0.35 0.62 0.50 0.53 0.60 0.80 0.61 0.43 0.38 0.38 0.37 0.28 0.23 0.29 0.34 0.42 0.57 0.61 0.78 1.04 1.03 0.97 0.98 1.61 1.27 1.33 1.33 1.70 1.69 1.82 1.43 1.61
0.65 0.80 0.86 0.90 0.13 0.38 0.94 0.33 0.12 0.21 0.56 0.56 0.92 0.59 0.31 0.47 0.59 0.53 0.62 0.56 0.65 0.52 0.41 0.38 0.32 0.38 0.42 0.47 0.56 0.72 1.02 1.26 1.34 1.19 1.25 1.24 1.54 1.58 1.46 1.29 1.48 1.74 1.97 1.80
0.65 0.71 1.08 0.87 0.58 1.25 0.55 0.20 0.24 0.33 0.46 0.48 0.45 0.41 0.43 0.38 0.57 0.49 0.52 0.72 1.02 1.25 0.69 0.54 0.53 0.48 0.61 0.64 0.58 0.78 0.94 1.21 1.48 1.76 1.68 1.48 1.19 1.33 1.42 1.67 1.55 1.54 1.94 2.06
0.36 0.80 1.59 1.25 0.84 0.64 0.66 0.72 0.68 0.59 0.55 0.43 0.41 0.51 0.44 0.26 0.36 0.50 0.52 0.61 0.89 1.22 1.38 1.03 0.82 0.77 0.77 0.71 0.85 0.90 1.01 1.03 1.23 1.62 2.02 2.13 1.85 1.60 1.35 1.51 2.08 1.92 1.81 1.88
0.32 0.61 1.77 1.69 1.52 1.24 0.92 0.36 0.28 0.54 0.90 0.49 0.29 0.35 0.42 0.51 0.72 0.92 0.87 0.62 0.66 0.80 1.00 1.40 1.18 0.71 0.60 0.66 0.63 0.79 0.88 1.00 1.26 1.53 1.63 1.76 2.00 2.12 2.40 2.13 2.01 2.35 2.08 1.90
0.54 0.98 1.28 1.16 1.65 0.98 0.37 0.42 0.44 0.77 1.00 0.42 0.30 0.32 0.51 0.69 0.83 1.23 1.10 0.98 0.85 0.82 0.75 0.70 0.99 1.13 0.83 0.67 0.58 0.58 0.81 0.97 1.35 1.39 1.61 1.61 1.52 1.68 1.98 2.17 2.23 2.08 2.14 1.95
0.62 1.01 1.36 1.45 1.66 1.04 0.36 0.52 0.68 0.81 0.51 0.31 0.35 0.44 0.40 0.77 1.06 1.23 1.10 0.89 0.67 0.56 0.45 0.31 0.30 0.51 0.84 0.79 0.68 0.59 0.57 0.82 0.84 1.02 1.11 1.21 1.41 1.37 1.36 1.34 1.59 1.77 1.90 1.92
1.51 1.04 1.11 0.95 0.84 0.65 0.46 0.49 0.44 0.32 0.30 0.44 0.52 0.94 0.85 1.08 1.44 1.47 1.17 0.85 0.63 0.45 0.31 0.20 0.16 0.22 0.31 0.35 0.49 0.67 0.75 0.62 0.64 0.63 0.68 0.85 0.85 0.96 1.08 1.12 1.21 1.15 1.14 1.23
0.90 0.53 0.84 0.85 0.57 0.47 0.61 0.37 0.29 0.24 0.28 0.39 0.75 1.11 1.58 1.51 1.46 1.26 0.88 0.64 0.47 0.34 0.28 0.19 0.16 0.20 0.22 0.22 0.29 0.40 0.51 0.60 0.62 0.62 0.61 0.60 0.68 0.81 0.80 0.86 0.98 1.01 1.06 1.10
1.01 0.78 0.68 0.80 0.94 0.72 0.53 0.54 0.58 0.48 0.35 0.37 0.52 0.67 0.69 0.66 0.66 0.58 0.50 0.42 0.31 0.27 0.22 0.14 0.13 0.12 0.16 0.13 0.19 0.26 0.26 0.25 0.30 0.33 0.37 0.46 0.52 0.58 0.63 0.73 0.78 0.75 0.98 0.95
0.93 1.06 0.89 1.05 1.60 1.39 0.88 0.55 0.55 0.61 0.63 0.49 0.45 0.60 0.62 0.41 0.47 0.43 0.47 0.42 0.38 0.33 0.24 0.17 0.14 0.11 0.16 0.18 0.26 0.30 0.31 0.32 0.38 0.45 0.46 0.50 0.51 0.56 0.60 0.65 0.81 0.88 0.88 0.89